Submittal Forms
Current Contests
Recent Contests

Club Activity Tracker - Swamp Fox Contest Group (from club selection on form)

Recent postings for the selected club or group are listed below. Other than the call used, all calls listed are only those associated with the club or group. Click on a call to see the details of the posting.
Status Key: new=new posting, update=update prior posting, move=change club/group, delete=delete prior posting.

Sort by   for past

TimestampCallContestClassPowerScoreStatus
2020-05-25 22:30:19WN4AFPYL DayOMLP1new5607
2020-05-25 22:24:36WN4AFPBalticSO CWLP6new5602
2020-05-22 03:05:18WN4AFPNCCC SprintSingle OpLP374new5598
2020-05-21 04:09:29WB4HRLCWopsTSingle OpHP1,295new5594
2020-05-21 04:05:02N4IQCWopsTSingle OpHP10,593new5594
2020-05-20 20:05:53N4IQCWopsTSingle OpHP11,772new5593
2020-05-20 20:03:22WB4HRLCWopsTSingle OpHP2,209new5593
2020-05-20 14:13:59N4IQCWopsTSingle OpHP10,605new5592
2020-05-20 14:12:45WB4HRLCWopsTSingle OpHP1,845new5592
2020-05-20 14:07:18WN4AFPCWopsTSingle OpLP441new5592
 
2020-05-19 19:20:35WN4AFPKing of Spain CWSOABLP1,152new5583
2020-05-17 17:53:40N4IQKing of Spain CWSOABHP32,235new5583
2020-05-17 14:29:15K7OMKing of Spain CWSOABHP5,632new5583
2020-05-17 01:28:40WB4HRLHamventionSingle OpHP65new5569
2020-05-15 02:22:18N4IQNCCC RY-SprintSingle OpLP663new5579
2020-05-14 23:17:33WN4AFPCWopsTSingle OpLP100new5576
2020-05-14 04:06:30N4IQCWopsTSingle OpHP14,848new5576
2020-05-13 20:10:01N4IQCWopsTSingle OpHP12,426new5575
2020-05-13 20:06:54WB4HRLCWopsTSingle OpHP2,208new5575
2020-05-13 20:05:34WB4HRLCWopsTSingle OpHP1,932new5574
 
2020-05-13 15:32:59N4IQCWopsTSingle OpHP12,296new5574
2020-05-12 12:13:47K7OMVolta RTTYSOABHP20,358,754new5563
2020-05-11 15:27:25WB4HRLArQPSOMixedHP480new5565
2020-05-10 15:28:30WN4AFPArQPSOMixedLP3,703update5565
2020-05-10 15:25:11KG4IGCVolta RTTYSOABLP28,366,800new5563
2020-05-10 15:22:27NU4E50SprngSprntSingle OpLP252update5567
2020-05-10 15:16:10K3DNEArQPSOSSBHP2,275update5565
2020-05-10 14:40:00WB4HRLVolta RTTYSOABHP2,669,520new5563
2020-05-10 03:36:56N4IQVolta RTTYSOABHP90,996,750new5563
2020-05-08 02:21:16N4IQNCCC RY-SprintSingle OpLP920new5561
 
2020-05-07 04:07:25WB4HRLCWopsTSingle OpHP1,296new5559
2020-05-07 04:05:14N4IQCWopsTSingle OpHP11,639new5559
2020-05-06 20:06:58WB4HRLCWopsTSingle OpHP2,401new5558
2020-05-06 20:06:18N4IQCWopsTSingle OpHP10,201new5558
2020-05-06 20:04:58WB4HRLCWopsTSingle OpHP1,638new5557
2020-05-06 14:12:01N4IQCWopsTSingle OpHP15,730new5557
2020-05-04 21:15:54WN4AFPNewEngQPSingle OpLP20,016new5547
2020-05-04 20:54:14WN4AFP7QPSO(A)MixedLP4,410new5544
2020-05-04 20:48:24WN4AFPDeQPSingle OpLP5,370new5546
2020-05-04 17:24:01WB4HRLNewEngQPSingle OpHP9,028new5547
 
2020-05-04 16:32:59WB4HRL7QPSO(A)CWHP5,655new5544
2020-05-04 15:41:57WB4HRLInQPSingle OpHP90new5545
2020-05-04 14:56:54WB4HRLDeQPSingle OpHP120new5546
2020-05-04 11:55:42AC4MCInQPSingle OpHP54new5545
2020-05-04 11:53:47AC4MCNewEngQPSingle OpHP7,410new5547
2020-05-04 11:52:14AC4MC7QPSO(A)MixedHP8,536new5544
2020-05-04 02:53:37NI7RDeQPSingle OpHP80new5546
2020-05-04 02:52:03NI7RInQPSingle OpHP140new5545
2020-05-04 02:50:09NI7RNewEngQPSingle OpHP7,344new5547
2020-05-04 02:47:31NI7R7QPSOCWHP9,546new5544
 
2020-05-04 00:56:55K3DNENewEngQPSingle OpHP8,575new5547
2020-05-04 00:56:01K3DNE7QPSO(A)SSBHP9,690new5544
2020-05-04 00:54:44K3DNEInQPSingle OpHP2,480new5545
2020-05-04 00:53:22K3DNEDeQPSingle OpHP520new5546
2020-05-03 23:36:11N4XLNewEngQPSingle OpLP902new5547
2020-05-03 03:27:34WN4AFPInQPSingle OpLP3,471new5545
2020-04-29 20:11:48N4IQCWopsTSingle OpHP11,340new5536
2020-04-29 20:05:36WB4HRLCWopsTSingle OpHP1,849new5536
2020-04-29 15:47:41N4IQCWopsTSingle OpHP11,336new5535
2020-04-29 14:12:30WB4HRLCWopsTSingle OpHP1,634new5535
 
2020-04-27 12:02:28WB4HRLFlQPSOAB(A)MixedHP1,239new5529
2020-04-27 11:54:07WB4HRLSPDX RTTYSOABHP58,707new5520
2020-04-26 22:31:48K3DNEFlQPSOAB(A)SSBHP2,112new5529
2020-04-26 19:05:02K7OMSPDX RTTYSOABHP69,750new5520
2020-04-26 15:38:31N4IQSPDX RTTYSOABHP52,080new